Location: Hamburg
(53.5554°N, 9.9941°E)
Time: 12:44:44
(UTC+01:00)

Envisat - Visible Passes

Search period start: 20 February 2018 00:00
Search period end: 02 March 2018 00:00
Orbit: 764 x 766 km, 98.2° (Epoch: 19 February)

Date Brightness Start Highest point End Pass type
(mag) Time Alt. Az. Time Alt. Az. Time Alt. Az.
20 Feb 3.2 18:54:30 10° SE 18:59:21 48° ENE 19:04:15 10° N visible
20 Feb 4.7 20:34:04 10° SSW 20:38:35 32° W 20:43:07 10° NNW visible
21 Feb 3.9 18:18:41 10° ESE 18:22:54 27° ENE 18:27:09 10° N visible
21 Feb 3.5 19:56:36 10° S 20:01:38 60° W 20:06:41 10° NNW visible
21 Feb 6.0 21:40:58 10° W 21:41:45 10° W 21:42:33 10° WNW visible
22 Feb 2.9 19:19:48 10° SSE 19:24:52 74° ENE 19:29:58 10° NNW visible
22 Feb 5.4 21:00:42 10° SW 21:04:27 20° W 21:08:13 10° NW visible
23 Feb 3.4 18:43:34 10° SE 18:48:17 40° ENE 18:53:01 10° N visible
23 Feb 4.4 20:22:38 10° SSW 20:27:21 38° W 20:32:06 10° NNW visible
24 Feb 3.2 19:45:23 10° S 19:50:27 72° WSW 19:55:34 10° NNW visible
24 Feb 5.9 21:28:09 10° WSW 21:30:25 13° W 21:32:42 10° WNW visible
25 Feb 3.0 19:08:45 10° SSE 19:13:45 61° ENE 19:18:47 10° N visible
25 Feb 5.1 20:49:03 10° SW 20:53:11 24° W 20:57:20 10° NW visible
26 Feb 3.7 18:32:41 10° SE 18:37:13 34° ENE 18:41:47 10° N visible
26 Feb 4.0 20:11:17 10° S 20:16:08 46° W 20:21:04 10° NNW visible
27 Feb 3.0 19:34:13 10° SSE 19:39:18 87° WSW 19:44:26 10° NNW visible
27 Feb 5.7 21:16:05 10° WSW 21:19:06 16° W 21:22:09 10° NW visible
28 Feb 3.2 18:57:45 10° SE 19:02:39 51° ENE 19:07:35 10° N visible
28 Feb 4.8 20:37:31 10° SSW 20:41:56 29° W 20:46:23 10° NNW visible
01 Mar 3.7 19:59:58 10° S 20:04:58 55° W 20:09:59 10° NNW visible
